Flag for U.S.A. Weather past 2 weeks in Wichita, Kansas, U.S.A.

Now
48 °F

Clear.


Feels Like: 41 °F
Forecast: 48 / 71 °F
Wind: 18 mph from South

Location: Wichita Mid-Continent Airport

Current Time: Mar 29, 2015 at 6:36:59 AM

Latest Report: Mar 29, 2015 at 5:53 AM


Visibility: 10 mi

Pressure: 29.85 "Hg

Humidity: 80%

Dew point: 42 °F

Location of WichitaLocation

Historic Weather in Wichita — Graph

°F

Wichita temperature yesterday

Maximum temperature yesterday: 73 °F (at 3:53 PM)
Minimum temperature yesterday: 39 °F (at 6:53 AM)
Average temperature yesterday: 55 °F

Past Weeks' High & Low Weather Summary

 TemperatureHumidityPressure
High82 °F (Mar 16, 2:53 PM)100% (Mar 19, 2:53 AM)30.33 "Hg (Mar 19, 2:53 AM)
Low30 °F (Mar 15, 7:53 AM)16% (Mar 16, 2:53 PM)29.73 "Hg (Mar 24, 7:53 AM)
Average53 °F60%30.08 "Hg
* Reported Mar 14 4:53 AM — Mar 29 4:53 AM, Wichita, Weather by CustomWeather, © 2015

Note: Actual official high and low records may vary slightly from our data, if they occured in-between our weather recording intervals... More about our weather records

Advertising

Wichita weather history for previous 24 hours

 ConditionsComfort  
Time TempWeatherWind HumidityBarometerVisibility
4:53 AM
Sun, Mar 29
48 °FClear.13 mph77%29.86 "Hg10 mi
3:53 AM50 °FClear.14 mph74%29.87 "Hg10 mi
2:53 AM51 °FClear.16 mph69%29.90 "Hg10 mi
1:53 AM51 °FClear.15 mph66%29.92 "Hg9 mi
12:53 AM54 °FClear.14 mph57%29.94 "Hg10 mi
11:53 PM
Sat, Mar 28
56 °FClear.17 mph53%29.96 "Hg10 mi
10:53 PM57 °FClear.16 mph53%29.98 "Hg7 mi
9:53 PM60 °FClear.14 mph47%30.00 "Hg6 mi
8:53 PM62 °FClear.14 mph44%29.99 "Hg10 mi
7:53 PM65 °FSunny.13 mph39%29.98 "Hg10 mi
6:53 PM70 °FSunny.16 mph34%29.97 "Hg10 mi
5:53 PM72 °FSunny.13 mph29%29.96 "Hg10 mi
4:53 PM73 °FSunny.12 mph28%29.96 "Hg10 mi
3:53 PM73 °FSunny.12 mph29%29.97 "Hg10 mi
2:53 PM69 °FSunny.12 mph35%29.99 "Hg10 mi
1:53 PM67 °FSunny.8 mph37%30.01 "Hg10 mi
12:53 PM63 °FSunny.7 mph41%30.03 "Hg10 mi
11:53 AM59 °FPassing clouds.5 mph48%30.03 "Hg10 mi
10:53 AM54 °FPassing clouds.No wind57%30.03 "Hg10 mi
9:53 AM50 °FPassing clouds.7 mph61%30.03 "Hg10 mi
8:53 AM44 °FPassing clouds.6 mph68%30.03 "Hg10 mi
7:53 AM39 °FPassing clouds.7 mph76%30.01 "Hg10 mi
6:53 AM39 °FPassing clouds.9 mph70%30.01 "Hg10 mi
Weather by CustomWeather, © 2015

See weather overviewHow to use our weather pages